TimeCST,TemperatureF,Dew PointF,Humidity,Sea Level PressureIn,VisibilityMPH,Wind Direction,Wind SpeedMPH,Gust SpeedMPH,PrecipitationIn,Events,Conditions,WindDirDegrees,DateUTC
7:35 AM,22.3,22.3,100,30.56,10.0,Calm,Calm,-,N/A,,Clear,0,2012-12-30 13:35:00
7:55 AM,23.2,23.2,100,30.57,10.0,Calm,Calm,-,N/A,,Clear,0,2012-12-30 13:55:00
8:15 AM,25.7,25.7,100,30.57,10.0,Calm,Calm,-,N/A,,Clear,0,2012-12-30 14:15:00
8:35 AM,27.9,27.5,99,30.58,10.0,Calm,Calm,-,N/A,,Clear,0,2012-12-30 14:35:00
8:55 AM,31.3,29.3,92,30.57,10.0,Calm,Calm,-,N/A,,Clear,0,2012-12-30 14:55:00
9:15 AM,34.3,27.9,77,30.57,10.0,ESE,3.5,-,N/A,,Clear,120,2012-12-30 15:15:00
9:35 AM,36.0,25.9,67,30.57,10.0,East,4.6,-,N/A,,Clear,90,2012-12-30 15:35:00
9:55 AM,36.7,25.2,63,30.58,10.0,East,8.1,-,N/A,,Clear,80,2012-12-30 15:55:00
10:15 AM,37.9,23.7,57,30.57,10.0,East,5.8,-,N/A,,Clear,80,2012-12-30 16:15:00
10:35 AM,39.2,23.5,53,30.56,10.0,ESE,4.6,-,N/A,,Clear,110,2012-12-30 16:35:00
10:55 AM,40.1,23.9,52,30.55,10.0,East,8.1,-,N/A,,Clear,100,2012-12-30 16:55:00
11:15 AM,41.7,22.3,46,30.55,10.0,SE,6.9,-,N/A,,Clear,130,2012-12-30 17:15:00
11:35 AM,42.8,21.0,42,30.53,10.0,SSE,8.1,-,N/A,,Clear,150,2012-12-30 17:35:00
11:55 AM,43.9,21.0,40,30.53,10.0,SE,4.6,-,N/A,,Clear,140,2012-12-30 17:55:00
12:15 PM,44.6,20.7,39,30.51,10.0,East,6.9,-,N/A,,Clear,100,2012-12-30 18:15:00
12:35 PM,45.1,20.5,38,30.49,10.0,ESE,5.8,-,N/A,,Clear,120,2012-12-30 18:35:00
12:55 PM,45.3,20.3,37,30.47,10.0,SE,5.8,-,N/A,,Clear,130,2012-12-30 18:55:00
1:15 PM,46.0,20.1,36,30.46,10.0,ENE,6.9,-,N/A,,Clear,70,2012-12-30 19:15:00
1:35 PM,47.8,19.4,32,30.46,10.0,SE,4.6,-,N/A,,Clear,130,2012-12-30 19:35:00
1:55 PM,46.4,20.1,35,30.45,10.0,East,5.8,-,N/A,,Clear,100,2012-12-30 19:55:00
2:15 PM,46.2,19.9,35,30.44,10.0,East,4.6,-,N/A,,Clear,100,2012-12-30 20:15:00
2:35 PM,48.2,19.2,32,30.44,10.0,ESE,3.5,-,N/A,,Clear,110,2012-12-30 20:35:00
2:55 PM,47.5,20.7,35,30.44,10.0,ENE,5.8,-,N/A,,Clear,70,2012-12-30 20:55:00
3:15 PM,46.9,21.0,36,30.44,10.0,ENE,5.8,-,N/A,,Clear,70,2012-12-30 21:15:00
3:35 PM,46.6,21.7,37,30.43,10.0,East,4.6,-,N/A,,Clear,90,2012-12-30 21:35:00
3:55 PM,45.9,23.0,41,30.44,10.0,ENE,4.6,-,N/A,,Clear,70,2012-12-30 21:55:00
4:15 PM,45.7,24.6,44,30.43,10.0,East,3.5,-,N/A,,Clear,90,2012-12-30 22:15:00
4:35 PM,45.1,25.2,46,30.43,10.0,East,3.5,-,N/A,,Clear,100,2012-12-30 22:35:00
4:55 PM,44.2,25.9,49,30.43,10.0,Calm,Calm,-,N/A,,Clear,0,2012-12-30 22:55:00
5:15 PM,43.9,25.9,49,30.44,10.0,Calm,Calm,-,N/A,,Clear,0,2012-12-30 23:15:00
5:35 PM,43.0,26.6,52,30.43,10.0,Calm,Calm,-,N/A,,Clear,0,2012-12-30 23:35:00
5:55 PM,42.6,27.1,54,30.41,10.0,ESE,4.6,-,N/A,,Clear,120,2012-12-30 23:55:00
6:15 PM,42.6,26.4,53,30.41,10.0,SE,3.5,-,N/A,,Clear,130,2012-12-31 00:15:00
6:35 PM,42.3,26.6,54,30.42,10.0,SSE,4.6,-,N/A,,Clear,160,2012-12-31 00:35:00
6:55 PM,42.1,26.8,55,30.42,10.0,SSE,3.5,-,N/A,,Clear,150,2012-12-31 00:55:00
7:15 PM,41.5,27.5,57,30.40,10.0,SE,3.5,-,N/A,,Clear,130,2012-12-31 01:15:00
7:35 PM,41.5,27.5,57,30.40,10.0,SE,3.5,-,N/A,,Clear,130,2012-12-31 01:35:00
7:55 PM,41.7,27.5,57,30.40,10.0,Calm,Calm,-,N/A,,Clear,0,2012-12-31 01:55:00
8:15 PM,41.5,28.2,59,30.40,10.0,Calm,Calm,-,N/A,,Clear,0,2012-12-31 02:15:00
8:35 PM,41.0,29.8,64,30.41,10.0,Calm,Calm,-,N/A,,Clear,0,2012-12-31 02:35:00
8:55 PM,41.0,28.9,62,30.40,10.0,Calm,Calm,-,N/A,,Clear,0,2012-12-31 02:55:00
9:15 PM,41.0,28.9,62,30.40,10.0,Calm,Calm,-,N/A,,Clear,0,2012-12-31 03:15:00
9:35 PM,40.3,29.3,65,30.38,10.0,SE,4.6,-,N/A,,Clear,130,2012-12-31 03:35:00
9:55 PM,39.7,29.7,67,30.38,10.0,SSE,3.5,-,N/A,,Clear,150,2012-12-31 03:55:00
10:15 PM,39.6,30.0,69,30.38,10.0,Calm,Calm,-,N/A,,Clear,0,2012-12-31 04:15:00
10:35 PM,39.4,30.2,70,30.37,10.0,Calm,Calm,-,N/A,,Clear,0,2012-12-31 04:35:00
10:55 PM,38.7,30.2,72,30.37,10.0,SE,3.5,-,N/A,,Clear,140,2012-12-31 04:55:00
11:15 PM,38.3,30.7,74,30.36,10.0,SE,3.5,-,N/A,,Clear,130,2012-12-31 05:15:00
11:35 PM,38.3,31.1,75,30.35,10.0,SE,3.5,-,N/A,,Clear,130,2012-12-31 05:35:00
11:55 PM,38.3,31.1,75,30.35,10.0,SSE,3.5,-,N/A,,Clear,150,2012-12-31 05:55:00